• In Hungary
  • List of Countries
  • For 7 days
  • Water Temperature
  • Satellite Maps
  • Weather Map
  • News
  • Weather Widgets
  • user-avatar
    Login

    Hourly Weather Alakaevka

    Today, 23 May, Wednesday

    Time Temperature Precipitation Wind Pressure Humidity
    00:00 +13°C° 0 mm 0 mps 759 mmHg 66%
    01:00 +12°C° 0 mm 0 mps 759 mmHg 67%
    02:00 +12°C° 0 mm 0 mps 759 mmHg 68%
    03:00 +11°C° 0 mm 0 mps 759 mmHg 69%
    04:00 +13°C° 0 mm 0 mps 759 mmHg 67%
    05:00 +14°C° 0 mm 0 mps 759 mmHg 64%
    06:00 +16°C° 0 mm 0 mps 759 mmHg 62%
    07:00 +17°C° 0 mm 0 mps 759 mmHg 57%
    08:00 +21°C° 0 mm 1 mps 759 mmHg 53%
    09:00 +23°C° 0 mm 1 mps 759 mmHg 47%
    10:00 +24°C° 0 mm 1 mps 759 mmHg 44%
    11:00 +25°C° 0 mm 2 mps 759 mmHg 41%
    12:00 +26°C° 0 mm 2 mps 759 mmHg 39%
    13:00 +26°C° 0 mm 2 mps 759 mmHg 38%
    14:00 +26°C° 0 mm 2 mps 758 mmHg 38%
    15:00 +27°C° 0 mm 2 mps 758 mmHg 38%
    16:00 +26°C° 0 mm 2 mps 757 mmHg 42%
    17:00 +25°C° 0 mm 2 mps 757 mmHg 47%
    18:00 +24°C° 0 mm 2 mps 756 mmHg 52%
    19:00 +23°C° 0 mm 2 mps 756 mmHg 53%
    20:00 +20°C° 0 mm 2 mps 756 mmHg 54%
    21:00 +19°C° 0 mm 2 mps 756 mmHg 55%
    22:00 +19°C° 0 mm 2 mps 756 mmHg 56%
    23:00 +18°C° 0 mm 2 mps 755 mmHg 56%

    Tomorrow, 24 May, Thursday

    Time Temperature Precipitation Wind Pressure Humidity
    00:00 +18°C° 0 mm 2 mps 755 mmHg 57%
    01:00 +18°C° 0 mm 2 mps 755 mmHg 58%
    02:00 +18°C° 0 mm 1 mps 755 mmHg 60%
    03:00 +18°C° 0 mm 1 mps 754 mmHg 61%
    04:00 +18°C° 0 mm 1 mps 754 mmHg 62%
    05:00 +19°C° 0 mm 1 mps 754 mmHg 63%
    06:00 +20°C° 0 mm 1 mps 754 mmHg 63%
    07:00 +21°C° 0 mm 1 mps 754 mmHg 59%
    08:00 +23°C° 0 mm 1 mps 753 mmHg 55%
    09:00 +24°C° 0 mm 1 mps 753 mmHg 51%
    10:00 +25°C° 0 mm 1 mps 753 mmHg 50%
    11:00 +26°C° 0 mm 1 mps 753 mmHg 48%
    12:00 +27°C° 0 mm 2 mps 753 mmHg 47%
    13:00 +27°C° 0 mm 2 mps 752 mmHg 47%
    14:00 +27°C° 0 mm 2 mps 752 mmHg 47%
    15:00 +27°C° 0 mm 2 mps 751 mmHg 47%
    16:00 +26°C° 0 mm 2 mps 751 mmHg 53%
    17:00 +25°C° 0 mm 2 mps 750 mmHg 59%
    18:00 +24°C° 0 mm 3 mps 750 mmHg 65%
    19:00 +22°C° 0.1 mm 3 mps 750 mmHg 67%
    20:00 +21°C° 0.1 mm 3 mps 749 mmHg 70%
    21:00 +19°C° 0.1 mm 3 mps 749 mmHg 73%
    22:00 +19°C° 0.2 mm 3 mps 749 mmHg 75%
    23:00 +18°C° 0.2 mm 4 mps 748 mmHg 77%

    Day after tomorrow, 25 May, Friday

    Time Temperature Precipitation Wind Pressure Humidity
    00:00 +18°C° 0.2 mm 4 mps 748 mmHg 78%
    01:00 +17°C° 0.4 mm 4 mps 748 mmHg 81%
    02:00 +17°C° 0.4 mm 4 mps 748 mmHg 84%
    03:00 +17°C° 0.4 mm 3 mps 747 mmHg 86%
    04:00 +17°C° 0.5 mm 3 mps 747 mmHg 86%
    05:00 +17°C° 0.5 mm 3 mps 747 mmHg 86%
    06:00 +17°C° 0.5 mm 3 mps 747 mmHg 86%
    07:00 +17°C° 0.6 mm 3 mps 747 mmHg 85%
    08:00 +17°C° 0.6 mm 3 mps 747 mmHg 84%
    09:00 +17°C° 0.6 mm 4 mps 747 mmHg 83%
    10:00 +17°C° 0.5 mm 4 mps 747 mmHg 84%
    11:00 +15°C° 0.5 mm 5 mps 747 mmHg 84%
    12:00 +14°C° 0.5 mm 5 mps 747 mmHg 85%
    13:00 +14°C° 0.4 mm 6 mps 747 mmHg 82%
    14:00 +13°C° 0.4 mm 6 mps 747 mmHg 79%
    15:00 +13°C° 0.4 mm 6 mps 748 mmHg 77%
    16:00 +13°C° 0.1 mm 6 mps 748 mmHg 74%
    17:00 +13°C° 0.1 mm 6 mps 748 mmHg 72%
    18:00 +13°C° 0.1 mm 6 mps 749 mmHg 70%
    19:00 +11°C° 0 mm 6 mps 749 mmHg 69%
    20:00 +10°C° 0 mm 7 mps 750 mmHg 68%
    21:00 +9°C° 0 mm 7 mps 750 mmHg 68%
    22:00 +8°C° 0 mm 7 mps 751 mmHg 66%
    23:00 +6°C° 0 mm 7 mps 751 mmHg 65%

    26 May, Saturday

    Time Temperature Precipitation Wind Pressure Humidity
    00:00 +6°C° 0 mm 7 mps 751 mmHg 63%
    01:00 +5°C° 0 mm 7 mps 752 mmHg 62%
    02:00 +5°C° 0 mm 7 mps 752 mmHg 61%
    03:00 +4°C° 0 mm 7 mps 753 mmHg 60%
    04:00 +4°C° 0 mm 8 mps 753 mmHg 59%
    05:00 +5°C° 0 mm 8 mps 754 mmHg 57%
    06:00 +5°C° 0 mm 9 mps 754 mmHg 56%
    07:00 +6°C° 0 mm 9 mps 754 mmHg 55%
    08:00 +7°C° 0 mm 9 mps 755 mmHg 54%
    09:00 +8°C° 0 mm 9 mps 755 mmHg 53%
    10:00 +10°C° 0 mm 9 mps 755 mmHg 53%
    11:00 +11°C° 0 mm 9 mps 755 mmHg 52%
    12:00 +12°C° 0 mm 9 mps 756 mmHg 51%
    13:00 +12°C° 0 mm 9 mps 756 mmHg 50%
    14:00 +12°C° 0 mm 8 mps 756 mmHg 49%
    15:00 +12°C° 0 mm 8 mps 756 mmHg 47%
    16:00 +12°C° 0 mm 7 mps 756 mmHg 50%
    17:00 +11°C° 0 mm 6 mps 756 mmHg 53%
    18:00 +12°C° 0 mm 5 mps 756 mmHg 56%
    19:00 +9°C° 0 mm 5 mps 756 mmHg 58%
    20:00 +8°C° 0 mm 4 mps 757 mmHg 60%
    21:00 +7°C° 0 mm 4 mps 757 mmHg 62%
    22:00 +7°C° 0 mm 4 mps 757 mmHg 64%
    23:00 +6°C° 0 mm 4 mps 757 mmHg 67%

    27 May, Sunday

    Time Temperature Precipitation Wind Pressure Humidity
    00:00 +6°C° 0 mm 4 mps 757 mmHg 69%
    01:00 +5°C° 0 mm 3 mps 756 mmHg 70%
    02:00 +5°C° 0 mm 3 mps 756 mmHg 71%
    03:00 +5°C° 0 mm 3 mps 756 mmHg 73%
    04:00 +6°C° 0 mm 4 mps 756 mmHg 70%
    05:00 +7°C° 0 mm 4 mps 756 mmHg 67%
    06:00 +9°C° 0 mm 5 mps 756 mmHg 65%
    07:00 +12°C° 0 mm 5 mps 755 mmHg 59%
    08:00 +13°C° 0 mm 5 mps 755 mmHg 54%
    09:00 +15°C° 0 mm 5 mps 754 mmHg 48%
    10:00 +17°C° 0 mm 5 mps 754 mmHg 49%
    11:00 +19°C° 0 mm 6 mps 753 mmHg 50%
    12:00 +20°C° 0 mm 6 mps 752 mmHg 51%
    13:00 +21°C° 0 mm 6 mps 752 mmHg 51%
    14:00 +21°C° 0 mm 6 mps 751 mmHg 50%
    15:00 +22°C° 0 mm 6 mps 751 mmHg 49%
    16:00 +21°C° 0 mm 5 mps 751 mmHg 54%
    17:00 +21°C° 0 mm 4 mps 750 mmHg 58%
    18:00 +21°C° 0 mm 3 mps 750 mmHg 62%
    19:00 +19°C° 0.1 mm 3 mps 750 mmHg 66%
    20:00 +18°C° 0.1 mm 3 mps 750 mmHg 71%
    21:00 +16°C° 0.1 mm 3 mps 749 mmHg 75%
    22:00 +16°C° 0.1 mm 3 mps 749 mmHg 77%
    23:00 +14°C° 0.1 mm 4 mps 748 mmHg 80%

    28 May, Monday

    Time Temperature Precipitation Wind Pressure Humidity
    00:00 +14°C° 0.1 mm 4 mps 748 mmHg 82%
    01:00 +14°C° 0.1 mm 4 mps 747 mmHg 83%
    02:00 +13°C° 0.1 mm 5 mps 747 mmHg 84%
    03:00 +13°C° 0.1 mm 5 mps 746 mmHg 85%
    04:00 +13°C° 0 mm 6 mps 746 mmHg 85%
    05:00 +12°C° 0 mm 7 mps 746 mmHg 84%
    06:00 +13°C° 0 mm 8 mps 746 mmHg 83%
    07:00 +12°C° 0 mm 7 mps 746 mmHg 81%
    08:00 +12°C° 0 mm 7 mps 746 mmHg 78%
    09:00 +11°C° 0 mm 7 mps 747 mmHg 76%
    10:00 +12°C° 0 mm 7 mps 746 mmHg 69%
    11:00 +15°C° 0 mm 7 mps 746 mmHg 61%
    12:00 +16°C° 0 mm 7 mps 746 mmHg 54%
    13:00 +15°C° 0.3 mm 7 mps 746 mmHg 58%
    14:00 +15°C° 0.3 mm 7 mps 746 mmHg 61%
    15:00 +14°C° 0.3 mm 7 mps 745 mmHg 64%
    16:00 +14°C° 0.1 mm 7 mps 746 mmHg 63%
    17:00 +13°C° 0.1 mm 6 mps 746 mmHg 62%
    18:00 +13°C° 0.1 mm 5 mps 746 mmHg 61%
    19:00 +11°C° 0 mm 4 mps 746 mmHg 62%
    20:00 +10°C° 0 mm 4 mps 746 mmHg 63%
    21:00 +8°C° 0 mm 3 mps 746 mmHg 64%
    22:00 +8°C° 0 mm 2 mps 745 mmHg 65%
    23:00 +8°C° 0 mm 2 mps 745 mmHg 67%
    Show more